| time (UTC) | temp C | wind direction | speed KPH | gust KPH | rain 1hr cm | rain 24hr cm | rain mn cm | humidity % | barometer mb |
| 20260505212323 | 23 | 200 | 12.9 | 22.5 | 0.00 | 0.00 | 0.00 | 56 | 1011.1 |
| 20260505211819 | 23 | 187 | 11.3 | 22.5 | 0.00 | 0.00 | 0.00 | 58 | 1011.1 |
| 20260505211317 | 23 | 161 | 9.7 | 24.1 | 0.00 | 0.00 | 0.00 | 58 | 1011.1 |
| 20260505210812 | 24 | 194 | 11.3 | 27.4 | 0.00 | 0.00 | 0.00 | 56 | 1011.1 |
| 20260505205305 | 24 | 195 | 16.1 | 22.5 | 0.00 | 0.00 | 0.00 | 55 | 1011.2 |
| 20260505203802 | 24 | 180 | 12.9 | 29.0 | 0.00 | 0.00 | 0.00 | 53 | 1011.2 |
| 20260505203301 | 24 | 182 | 11.3 | 20.9 | 0.00 | 0.00 | 0.00 | 54 | 1011.3 |
| 20260505202306 | 25 | 198 | 11.3 | 40.2 | 0.00 | 0.00 | 0.00 | 50 | 1011.4 |
| 20260505201803 | 26 | 180 | 14.5 | 32.2 | 0.00 | 0.00 | 0.00 | 50 | 1011.3 |
| 20260505201302 | 25 | 216 | 20.9 | 32.2 | 0.00 | 0.00 | 0.00 | 40 | 1011.4 |
| 20260505200802 | 25 | 190 | 12.9 | 24.1 | 0.00 | 0.00 | 0.00 | 52 | 1011.5 |
| 20260505200302 | 26 | 162 | 11.3 | 24.1 | 0.00 | 0.00 | 0.00 | 51 | 1011.7 |
| 20260505195802 | 27 | 191 | 14.5 | 33.8 | 0.00 | 0.00 | 0.00 | 47 | 1011.7 |
| 20260505194802 | 28 | 206 | 22.5 | 35.4 | 0.00 | 0.00 | 0.00 | 33 | 1011.6 |
| 20260505194302 | 28 | 221 | 19.3 | 32.2 | 0.00 | 0.00 | 0.00 | 33 | 1011.8 |
| 20260505193302 | 28 | 214 | 14.5 | 30.6 | 0.00 | 0.00 | 0.00 | 33 | 1011.9 |
| 20260505192803 | 28 | 231 | 16.1 | 32.2 | 0.00 | 0.00 | 0.00 | 32 | 1012.1 |
| 20260505192305 | 28 | 239 | 11.3 | 32.2 | 0.00 | 0.00 | 0.00 | 31 | 1012.2 |
| 20260505191802 | 28 | 238 | 17.7 | 32.2 | 0.00 | 0.00 | 0.00 | 32 | 1012.2 |
| 20260505191303 | 28 | 238 | 16.1 | 33.8 | 0.00 | 0.00 | 0.00 | 32 | 1012.3 |
| 20260505190801 | 28 | 224 | 17.7 | 33.8 | 0.00 | 0.00 | 0.00 | 32 | 1012.3 |
| 20260505185802 | 28 | 209 | 17.7 | 37.0 | 0.00 | 0.00 | 0.00 | 33 | 1012.4 |
| 20260505185308 | 28 | 230 | 14.5 | 45.1 | 0.00 | 0.00 | 0.00 | 32 | 1012.5 |
| 20260505184804 | 28 | 254 | 12.9 | 45.1 | 0.00 | 0.00 | 0.00 | 32 | 1012.5 |
| 20260505184302 | 28 | 231 | 22.5 | 45.1 | 0.00 | 0.00 | 0.00 | 32 | 1012.6 |
| 20260505183803 | 27 | 252 | 20.9 | 33.8 | 0.00 | 0.00 | 0.00 | 31 | 1012.5 |
| 20260505183303 | 28 | 221 | 17.7 | 33.8 | 0.00 | 0.00 | 0.00 | 32 | 1012.6 |
| 20260505182305 | 27 | 242 | 14.5 | 35.4 | 0.00 | 0.00 | 0.00 | 34 | 1012.6 |
| 20260505181801 | 27 | 217 | 19.3 | 35.4 | 0.00 | 0.00 | 0.00 | 34 | 1012.8 |
| 20260505181302 | 27 | 221 | 20.9 | 30.6 | 0.00 | 0.00 | 0.00 | 33 | 1012.7 |
| 20260505180803 | 27 | 269 | 12.9 | 32.2 | 0.00 | 0.00 | 0.00 | 34 | 1012.7 |
| 20260505180302 | 27 | 286 | 19.3 | 32.2 | 0.00 | 0.00 | 0.00 | 33 | 1012.8 |
| 20260505175803 | 27 | 162 | 14.5 | 30.6 | 0.00 | 0.00 | 0.00 | 35 | 1012.8 |
| 20260505175305 | 27 | 261 | 9.7 | 24.1 | 0.00 | 0.00 | 0.00 | 35 | 1012.8 |
| 20260505174804 | 27 | 273 | 16.1 | 27.4 | 0.00 | 0.00 | 0.00 | 35 | 1012.8 |
| 20260505174302 | 27 | 243 | 17.7 | 27.4 | 0.00 | 0.00 | 0.00 | 35 | 1012.8 |
| 20260505173801 | 27 | 226 | 14.5 | 29.0 | 0.00 | 0.00 | 0.00 | 36 | 1012.7 |
| 20260505173303 | 27 | 217 | 14.5 | 29.0 | 0.00 | 0.00 | 0.00 | 36 | 1012.8 |
| 20260505172305 | 27 | 286 | 11.3 | 27.4 | 0.00 | 0.00 | 0.00 | 36 | 1012.9 |
| 20260505171802 | 26 | 224 | 11.3 | 25.7 | 0.00 | 0.00 | 0.00 | 37 | 1013.1 |
| 20260505171302 | 26 | 213 | 17.7 | 27.4 | 0.00 | 0.00 | 0.00 | 38 | 1013.0 |
| 20260505170803 | 26 | 243 | 11.3 | 27.4 | 0.00 | 0.00 | 0.00 | 40 | 1013.1 |
| 20260505170302 | 26 | 198 | 12.9 | 30.6 | 0.00 | 0.00 | 0.00 | 40 | 1013.2 |
| 20260505165803 | 26 | 221 | 16.1 | 30.6 | 0.00 | 0.00 | 0.00 | 39 | 1013.5 |
| 20260505165305 | 26 | 205 | 14.5 | 25.7 | 0.00 | 0.00 | 0.00 | 40 | 1013.4 |
| 20260505164803 | 26 | 207 | 11.3 | 25.7 | 0.00 | 0.00 | 0.00 | 40 | 1013.5 |
| 20260505164300 | 26 | 200 | 14.5 | 25.7 | 0.00 | 0.00 | 0.00 | 41 | 1013.5 |
| 20260505163301 | 25 | 202 | 17.7 | 25.7 | 0.00 | 0.00 | 0.00 | 41 | 1013.6 |
| 20260505162301 | 25 | 228 | 16.1 | 32.2 | 0.00 | 0.00 | 0.00 | 42 | 1013.7 |
| 20260505161800 | 25 | 259 | 16.1 | 32.2 | 0.00 | 0.00 | 0.00 | 42 | 1013.9 |
| 20260505161301 | 25 | 240 | 12.9 | 24.1 | 0.00 | 0.00 | 0.00 | 45 | 1013.9 |
| 20260505160801 | 25 | 237 | 16.1 | 24.1 | 0.00 | 0.00 | 0.00 | 46 | 1014.0 |
| 20260505160301 | 25 | 248 | 12.9 | 24.1 | 0.00 | 0.00 | 0.00 | 44 | 1013.9 |
| 20260505152250 | 23 | 277 | 14.5 | 30.6 | 0.00 | 0.00 | 0.00 | 46 | 1013.9 |
| 20260505151242 | 23 | 246 | 9.7 | 25.7 | 0.00 | 0.00 | 0.00 | 47 | 1013.9 |
| 20260505150738 | 23 | 231 | 6.4 | 22.5 | 0.00 | 0.00 | 0.00 | 49 | 1014.0 |
| 20260505150239 | 23 | 211 | 14.5 | 22.5 | 0.00 | 0.00 | 0.00 | 49 | 1013.9 |
| 20260505140230 | 21 | 279 | 12.9 | 32.2 | 0.00 | 0.00 | 0.00 | 54 | 1014.0 |
| 20260505130229 | 20 | 207 | 12.9 | 24.1 | 0.00 | 0.00 | 0.00 | 59 | 1014.0 |
| 20260505124215 | 19 | 281 | 16.1 | 30.6 | 0.00 | 0.00 | 0.00 | 61 | 1014.0 |
| 20260505123711 | 19 | 219 | 12.9 | 24.1 | 0.00 | 0.00 | 0.00 | 62 | 1014.0 |
| 20260505123211 | 18 | 222 | 17.7 | 24.1 | 0.00 | 0.00 | 0.00 | 62 | 1014.0 |
| 20260505122707 | 18 | 261 | 14.5 | 25.7 | 0.00 | 0.00 | 0.00 | 63 | 1014.0 |
| 20260505122203 | 18 | 267 | 14.5 | 25.7 | 0.00 | 0.00 | 0.00 | 63 | 1014.0 |
| 20260505121203 | 18 | 230 | 11.3 | 29.0 | 0.00 | 0.00 | 0.00 | 65 | 1013.9 |
| 20260505120702 | 18 | 261 | 11.3 | 25.7 | 0.00 | 0.00 | 0.00 | 65 | 1013.8 |
| 20260505115701 | 18 | 252 | 12.9 | 27.4 | 0.00 | 0.00 | 0.00 | 66 | 1013.8 |
| 20260505115202 | 17 | 261 | 9.7 | 27.4 | 0.00 | 0.00 | 0.00 | 67 | 1013.8 |
| 20260505114702 | 17 | 262 | 12.9 | 24.1 | 0.00 | 0.00 | 0.00 | 66 | 1013.7 |
| 20260505114202 | 17 | 232 | 9.7 | 24.1 | 0.00 | 0.00 | 0.00 | 67 | 1013.6 |
| 20260505113703 | 17 | 247 | 9.7 | 24.1 | 0.00 | 0.00 | 0.00 | 68 | 1013.6 |
| 20260505112701 | 17 | 264 | 11.3 | 30.6 | 0.00 | 0.00 | 0.00 | 67 | 1013.5 |
| 20260505111203 | 17 | 269 | 12.9 | 32.2 | 0.00 | 0.00 | 0.00 | 68 | 1013.3 |
| 20260505110704 | 17 | 271 | 16.1 | 32.2 | 0.00 | 0.00 | 0.00 | 67 | 1013.3 |
| 20260505110202 | 17 | 289 | 17.7 | 38.6 | 0.00 | 0.00 | 0.00 | 68 | 1013.2 |
| 20260505102205 | 17 | 263 | 17.7 | 27.4 | 0.00 | 0.00 | 0.00 | 68 | 1012.9 |
| 20260505101702 | 17 | 274 | 17.7 | 27.4 | 0.00 | 0.00 | 0.00 | 68 | 1012.8 |
| 20260505101201 | 17 | 254 | 17.7 | 27.4 | 0.00 | 0.00 | 0.00 | 68 | 1012.8 |
| 20260505100701 | 17 | 299 | 17.7 | 27.4 | 0.00 | 0.00 | 0.00 | 68 | 1012.8 |
| 20260505100201 | 17 | 252 | 17.7 | 27.4 | 0.00 | 0.00 | 0.00 | 68 | 1012.8 |
| 20260505095658 | 17 | 273 | 19.3 | 25.7 | 0.00 | 0.00 | 0.00 | 68 | 1012.8 |
| 20260505094650 | 17 | 255 | 17.7 | 27.4 | 0.00 | 0.00 | 0.00 | 68 | 1012.7 |
| 20260505093643 | 17 | 262 | 14.5 | 24.1 | 0.00 | 0.00 | 0.00 | 68 | 1012.7 |
| 20260505093139 | 17 | 264 | 14.5 | 24.1 | 0.00 | 0.00 | 0.00 | 68 | 1012.6 |
| 20260505092635 | 17 | 260 | 17.7 | 27.4 | 0.00 | 0.00 | 0.00 | 68 | 1012.5 |
| 20260505092130 | 17 | 261 | 16.1 | 27.4 | 0.00 | 0.00 | 0.00 | 68 | 1012.6 |
| 20260505091629 | 17 | 255 | 14.5 | 24.1 | 0.00 | 0.00 | 0.00 | 68 | 1012.5 |
| 20260505091129 | 17 | 255 | 14.5 | 24.1 | 0.00 | 0.00 | 0.00 | 68 | 1012.5 |
| 20260505090629 | 17 | 236 | 16.1 | 30.6 | 0.00 | 0.00 | 0.00 | 67 | 1012.5 |
| 20260505090129 | 17 | 267 | 17.7 | 30.6 | 0.00 | 0.00 | 0.00 | 67 | 1012.5 |
| 20260505085630 | 17 | 252 | 17.7 | 29.0 | 0.00 | 0.00 | 0.00 | 67 | 1012.5 |
| 20260505085129 | 17 | 270 | 12.9 | 24.1 | 0.00 | 0.00 | 0.00 | 68 | 1012.6 |
| 20260505084129 | 17 | 275 | 14.5 | 25.7 | 0.00 | 0.00 | 0.00 | 68 | 1012.6 |
| 20260505083630 | 17 | 236 | 8.0 | 24.1 | 0.00 | 0.00 | 0.00 | 68 | 1012.7 |
| 20260505083129 | 17 | 273 | 11.3 | 24.1 | 0.00 | 0.00 | 0.00 | 67 | 1012.7 |
| 20260505081629 | 17 | 250 | 11.3 | 20.9 | 0.00 | 0.00 | 0.00 | 67 | 1012.7 |
| 20260505081128 | 17 | 264 | 11.3 | 24.1 | 0.00 | 0.00 | 0.00 | 67 | 1012.6 |
| 20260505080629 | 17 | 252 | 11.3 | 24.1 | 0.00 | 0.00 | 0.00 | 66 | 1012.5 |
| 20260505080130 | 17 | 244 | 14.5 | 24.1 | 0.00 | 0.00 | 0.00 | 66 | 1012.5 |
| 20260505075628 | 17 | 223 | 12.9 | 25.7 | 0.00 | 0.00 | 0.00 | 66 | 1012.5 |
| 20260505075130 | 17 | 264 | 14.5 | 32.2 | 0.00 | 0.00 | 0.00 | 66 | 1012.5 |
| 20260505074630 | 17 | 254 | 14.5 | 32.2 | 0.00 | 0.00 | 0.00 | 66 | 1012.5 |
| 20260505074130 | 17 | 261 | 12.9 | 29.0 | 0.00 | 0.00 | 0.00 | 66 | 1012.5 |
| 20260505073626 | 17 | 242 | 14.5 | 29.0 | 0.00 | 0.00 | 0.00 | 66 | 1012.5 |
| 20260505072617 | 18 | 255 | 16.1 | 29.0 | 0.00 | 0.00 | 0.00 | 65 | 1012.4 |
| 20260505071110 | 18 | 259 | 14.5 | 29.0 | 0.00 | 0.00 | 0.00 | 66 | 1012.3 |
| 20260505070605 | 18 | 281 | 11.3 | 25.7 | 0.00 | 0.00 | 0.00 | 66 | 1012.3 |
| 20260505070104 | 18 | 275 | 12.9 | 25.7 | 0.00 | 0.00 | 0.00 | 66 | 1012.2 |
| 20260505065602 | 18 | 250 | 14.5 | 25.7 | 0.00 | 0.00 | 0.00 | 66 | 1012.2 |
| 20260505064601 | 18 | 285 | 12.9 | 27.4 | 0.00 | 0.00 | 0.00 | 66 | 1012.2 |
| 20260505064101 | 18 | 267 | 12.9 | 24.1 | 0.00 | 0.00 | 0.00 | 66 | 1012.3 |
| 20260505063600 | 18 | 264 | 14.5 | 30.6 | 0.00 | 0.00 | 0.00 | 66 | 1012.2 |
| 20260505063100 | 18 | 262 | 17.7 | 30.6 | 0.00 | 0.00 | 0.00 | 65 | 1012.4 |
| 20260505062601 | 18 | 275 | 16.1 | 25.7 | 0.00 | 0.00 | 0.00 | 65 | 1012.4 |
| 20260505062101 | 18 | 275 | 14.5 | 22.5 | 0.00 | 0.00 | 0.00 | 65 | 1012.4 |
| 20260505060601 | 18 | 275 | 9.7 | 24.1 | 0.00 | 0.00 | 0.00 | 66 | 1012.4 |
| 20260505060100 | 18 | 220 | 14.5 | 24.1 | 0.00 | 0.00 | 0.00 | 66 | 1012.4 |
| 20260505055603 | 18 | 242 | 11.3 | 20.9 | 0.00 | 0.00 | 0.00 | 66 | 1012.4 |
| 20260505055102 | 18 | 240 | 11.3 | 20.9 | 0.00 | 0.00 | 0.00 | 65 | 1012.4 |
| 20260505054101 | 18 | 246 | 16.1 | 25.7 | 0.00 | 0.00 | 0.00 | 65 | 1012.5 |
| 20260505053603 | 18 | 278 | 6.4 | 22.5 | 0.00 | 0.00 | 0.00 | 65 | 1012.5 |
| 20260505052602 | 18 | 218 | 12.9 | 27.4 | 0.00 | 0.00 | 0.00 | 65 | 1012.6 |
| 20260505052102 | 18 | 234 | 8.0 | 27.4 | 0.00 | 0.00 | 0.00 | 65 | 1012.5 |
| 20260505051602 | 18 | 199 | 9.7 | 20.9 | 0.00 | 0.00 | 0.00 | 65 | 1012.6 |
| 20260505051102 | 18 | 244 | 9.7 | 20.9 | 0.00 | 0.00 | 0.00 | 65 | 1012.5 |
| 20260505050602 | 18 | 211 | 11.3 | 20.9 | 0.00 | 0.00 | 0.00 | 65 | 1012.5 |
| 20260505041602 | 19 | 204 | 12.9 | 24.1 | 0.00 | 0.00 | 0.00 | 67 | 1012.5 |
| 20260505040604 | 19 | 261 | 9.7 | 27.4 | 0.00 | 0.00 | 0.00 | 67 | 1012.5 |
| 20260505035102 | 19 | 180 | 11.3 | 27.4 | 0.00 | 0.00 | 0.00 | 67 | 1012.4 |
| 20260505034602 | 19 | 206 | 14.5 | 27.4 | 0.00 | 0.00 | 0.00 | 67 | 1012.4 |
| 20260505034102 | 19 | 195 | 14.5 | 24.1 | 0.00 | 0.00 | 0.00 | 67 | 1012.4 |
| 20260505033602 | 19 | 209 | 9.7 | 24.1 | 0.00 | 0.00 | 0.00 | 67 | 1012.3 |
| 20260505033102 | 19 | 231 | 14.5 | 24.1 | 0.00 | 0.00 | 0.00 | 67 | 1012.4 |
| 20260505032603 | 19 | 206 | 17.7 | 24.1 | 0.00 | 0.00 | 0.00 | 67 | 1012.3 |
| 20260505032102 | 19 | 164 | 11.3 | 22.5 | 0.00 | 0.00 | 0.00 | 67 | 1012.4 |
| 20260505031603 | 19 | 254 | 12.9 | 22.5 | 0.00 | 0.00 | 0.00 | 67 | 1012.4 |
| 20260505031102 | 19 | 246 | 11.3 | 24.1 | 0.00 | 0.00 | 0.00 | 66 | 1012.3 |
| 20260505030601 | 19 | 211 | 14.5 | 25.7 | 0.00 | 0.00 | 0.00 | 66 | 1012.3 |
| 20260505025601 | 19 | 232 | 14.5 | 22.5 | 0.00 | 0.00 | 0.00 | 63 | 1012.3 |
| 20260505025101 | 19 | 219 | 12.9 | 20.9 | 0.00 | 0.00 | 0.00 | 62 | 1012.4 |
| 20260505023606 | 20 | 191 | 9.7 | 20.9 | 0.00 | 0.00 | 0.00 | 61 | 1012.3 |
| 20260505023103 | 20 | 222 | 12.9 | 20.9 | 0.00 | 0.00 | 0.00 | 63 | 1012.2 |
| 20260505022102 | 19 | 217 | 8.0 | 16.1 | 0.00 | 0.00 | 0.00 | 53 | 1012.2 |
| 20260505021601 | 19 | 219 | 6.4 | 12.9 | 0.00 | 0.00 | 0.00 | 54 | 1012.1 |
| 20260505021100 | 19 | 242 | 4.8 | 12.9 | 0.00 | 0.00 | 0.00 | 55 | 1012.0 |
| 20260505020600 | 18 | 225 | 4.8 | 11.3 | 0.00 | 0.00 | 0.00 | 57 | 1011.8 |
| 20260505015101 | 17 | 190 | 3.2 | 8.0 | 0.00 | 0.00 | 0.00 | 66 | 1011.9 |
| 20260505014601 | 17 | 221 | 3.2 | 6.4 | 0.00 | 0.00 | 0.00 | 69 | 1011.8 |
| 20260505014102 | 16 | 188 | 3.2 | 6.4 | 0.00 | 0.00 | 0.00 | 73 | 1011.9 |
| 20260505013602 | 16 | 247 | 3.2 | 4.8 | 0.00 | 0.00 | 0.00 | 77 | 1011.9 |
| 20260505013101 | 16 | 205 | 1.6 | 4.8 | 0.00 | 0.00 | 0.00 | 80 | 1012.0 |
| 20260505012601 | 16 | 233 | 0.0 | 4.8 | 0.00 | 0.00 | 0.00 | 81 | 1012.1 |
| 20260505012100 | 17 | 217 | 0.0 | 3.2 | 0.00 | 0.00 | 0.00 | 82 | 1011.9 |
| 20260505011602 | 17 | 234 | 0.0 | 3.2 | 0.00 | 0.00 | 0.00 | 82 | 1011.9 |
| 20260505011101 | 17 | 234 | 1.6 | 3.2 | 0.00 | 0.00 | 0.00 | 82 | 1011.9 |
| 20260505010603 | 17 | 234 | 1.6 | 4.8 | 0.00 | 0.00 | 0.00 | 82 | 1011.9 |
| 20260505005602 | 17 | 212 | 3.2 | 8.0 | 0.00 | 0.00 | 0.00 | 82 | 1011.8 |
| 20260505005102 | 17 | 211 | 3.2 | 12.9 | 0.00 | 0.00 | 0.00 | 82 | 1011.7 |
| 20260505004101 | 17 | 205 | 8.0 | 11.3 | 0.00 | 0.00 | 0.00 | 82 | 1011.5 |
| 20260505003602 | 17 | 211 | 4.8 | 8.0 | 0.00 | 0.00 | 0.00 | 81 | 1011.5 |
| 20260505003101 | 17 | 194 | 4.8 | 8.0 | 0.00 | 0.00 | 0.00 | 80 | 1011.4 |
| 20260505002601 | 17 | 192 | 4.8 | 9.7 | 0.00 | 0.00 | 0.00 | 80 | 1011.4 |
| 20260505002101 | 17 | 198 | 6.4 | 11.3 | 0.00 | 0.00 | 0.00 | 80 | 1011.3 |
| 20260505001601 | 17 | 209 | 6.4 | 11.3 | 0.00 | 0.00 | 0.00 | 79 | 1011.4 |
| 20260505001100 | 18 | 198 | 6.4 | 11.3 | 0.00 | 0.00 | 0.00 | 78 | 1011.4 |
| 20260505000558 | 18 | 198 | 8.0 | 11.3 | 0.00 | 0.00 | 0.00 | 77 | 1011.4 |
| 20260505000058 | 18 | 187 | 4.8 | 11.3 | 0.00 | 0.00 | 0.00 | 76 | 1011.3 |
| 20260504235555 | 18 | 176 | 4.8 | 11.3 | 0.00 | 0.00 | 0.00 | 75 | 1011.3 |
| 20260504235052 | 18 | 202 | 3.2 | 9.7 | 0.00 | 0.00 | 0.00 | 74 | 1011.3 |
| 20260504234548 | 18 | 203 | 4.8 | 9.7 | 0.00 | 0.00 | 0.00 | 73 | 1011.2 |
| 20260504232535 | 18 | 205 | 6.4 | 14.5 | 0.00 | 0.00 | 0.00 | 70 | 1011.1 |
| 20260504232032 | 19 | 229 | 8.0 | 14.5 | 0.00 | 0.00 | 0.00 | 69 | 1011.0 |
| 20260504231532 | 19 | 213 | 8.0 | 12.9 | 0.00 | 0.00 | 0.00 | 68 | 1011.0 |
| 20260504231029 | 19 | 183 | 6.4 | 16.1 | 0.00 | 0.00 | 0.00 | 67 | 1010.9 |
| 20260504230529 | 19 | 201 | 8.0 | 17.7 | 0.00 | 0.00 | 0.00 | 66 | 1010.9 |
| 20260504230029 | 19 | 198 | 6.4 | 17.7 | 0.00 | 0.00 | 0.00 | 66 | 1011.0 |
| 20260504225029 | 20 | 210 | 9.7 | 16.1 | 0.00 | 0.00 | 0.00 | 64 | 1011.0 |
| 20260504224029 | 20 | 185 | 9.7 | 17.7 | 0.00 | 0.00 | 0.00 | 61 | 1011.1 |
| 20260504223529 | 20 | 209 | 9.7 | 19.3 | 0.00 | 0.00 | 0.00 | 61 | 1011.1 |
| 20260504223029 | 20 | 193 | 9.7 | 19.3 | 0.00 | 0.00 | 0.00 | 61 | 1011.1 |
| 20260504222029 | 20 | 187 | 9.7 | 16.1 | 0.00 | 0.00 | 0.00 | 61 | 1011.2 |
| 20260504221530 | 20 | 205 | 4.8 | 14.5 | 0.00 | 0.00 | 0.00 | 61 | 1011.2 |
| 20260504221031 | 20 | 147 | 8.0 | 17.7 | 0.00 | 0.00 | 0.00 | 61 | 1011.3 |
| 20260504220529 | 20 | 196 | 12.9 | 17.7 | 0.00 | 0.00 | 0.00 | 61 | 1011.2 |
| 20260504220030 | 20 | 188 | 8.0 | 16.1 | 0.00 | 0.00 | 0.00 | 60 | 1011.2 |
| 20260504215529 | 20 | 192 | 9.7 | 16.1 | 0.00 | 0.00 | 0.00 | 62 | 1011.1 |
| 20260504214527 | 20 | 180 | 8.0 | 17.7 | 0.00 | 0.00 | 0.00 | 61 | 1011.3 |
| 20260504214022 | 21 | 181 | 14.5 | 17.7 | 0.00 | 0.00 | 0.00 | 60 | 1011.3 |
| 20260504213518 | 21 | 154 | 9.7 | 20.9 | 0.00 | 0.00 | 0.00 | 58 | 1011.3 |